When you browse on this site, cookies collect data to enhance your experience and personalize the content and advertising you see.
Visit our Privacy Policy to learn more. By continuing to use the site, you agree to this use of cookies and data.
  • In Hungary
  • List of Countries
  • For 7 days
  • Water Temperature
  • Satellite Maps
  • Weather Map
  • News
  • Weather Widgets
  • user-avatar
    Login

    Hourly Weather Rolandia

    Today, 19 January, Saturday

    Time Temperature Precipitation Wind Pressure Humidity
    00:00 +21°C° 1.7 mm 0 mps 698 mmHg 88%
    01:00 +21°C° 0 mm 0 mps 698 mmHg 89%
    02:00 +20°C° 0 mm 0 mps 698 mmHg 90%
    03:00 +20°C° 0 mm 0 mps 697 mmHg 91%
    04:00 +20°C° 0 mm 0 mps 697 mmHg 92%
    05:00 +20°C° 0 mm 0 mps 697 mmHg 92%
    06:00 +19°C° 0 mm 0 mps 697 mmHg 93%
    07:00 +21°C° 0.2 mm 0 mps 698 mmHg 88%
    08:00 +23°C° 0.2 mm 0 mps 698 mmHg 84%
    09:00 +27°C° 0.2 mm 1 mps 699 mmHg 80%
    10:00 +28°C° 1.7 mm 1 mps 699 mmHg 77%
    11:00 +28°C° 1.7 mm 1 mps 699 mmHg 75%
    12:00 +29°C° 1.7 mm 2 mps 699 mmHg 72%
    13:00 +30°C° 0.4 mm 2 mps 699 mmHg 69%
    14:00 +30°C° 0.4 mm 2 mps 699 mmHg 66%
    15:00 +31°C° 0.4 mm 2 mps 698 mmHg 62%
    16:00 +30°C° 0.8 mm 2 mps 698 mmHg 70%
    17:00 +29°C° 0.8 mm 2 mps 698 mmHg 77%
    18:00 +28°C° 0.8 mm 2 mps 697 mmHg 85%
    19:00 +26°C° 0.3 mm 2 mps 697 mmHg 87%
    20:00 +25°C° 0.3 mm 1 mps 697 mmHg 89%
    21:00 +24°C° 0.3 mm 1 mps 697 mmHg 92%
    22:00 +23°C° 0 mm 1 mps 697 mmHg 92%
    23:00 +23°C° 0 mm 1 mps 697 mmHg 92%

    Tomorrow, 20 January, Sunday

    Time Temperature Precipitation Wind Pressure Humidity
    00:00 +23°C° 0 mm 1 mps 697 mmHg 91%
    01:00 +23°C° 0 mm 1 mps 697 mmHg 91%
    02:00 +23°C° 0 mm 1 mps 697 mmHg 91%
    03:00 +22°C° 0 mm 1 mps 696 mmHg 91%
    04:00 +22°C° 0 mm 1 mps 697 mmHg 93%
    05:00 +22°C° 0 mm 1 mps 697 mmHg 94%
    06:00 +22°C° 0 mm 1 mps 697 mmHg 95%
    07:00 +23°C° 0.2 mm 2 mps 698 mmHg 92%
    08:00 +25°C° 0.2 mm 2 mps 698 mmHg 89%
    09:00 +26°C° 0.2 mm 3 mps 699 mmHg 86%
    10:00 +27°C° 1 mm 3 mps 699 mmHg 83%
    11:00 +28°C° 1 mm 3 mps 699 mmHg 80%
    12:00 +29°C° 1 mm 3 mps 699 mmHg 76%
    13:00 +29°C° 1.9 mm 3 mps 699 mmHg 77%
    14:00 +29°C° 1.9 mm 3 mps 698 mmHg 77%
    15:00 +29°C° 1.9 mm 3 mps 698 mmHg 77%
    16:00 +28°C° 1.6 mm 2 mps 697 mmHg 81%
    17:00 +27°C° 1.6 mm 2 mps 697 mmHg 85%
    18:00 +27°C° 1.6 mm 1 mps 697 mmHg 89%
    19:00 +26°C° 0.2 mm 1 mps 697 mmHg 90%
    20:00 +25°C° 0.2 mm 1 mps 697 mmHg 90%
    21:00 +22°C° 0.2 mm 0 mps 698 mmHg 91%
    22:00 +21°C° 0 mm 0 mps 698 mmHg 91%
    23:00 +21°C° 0 mm 0 mps 698 mmHg 91%

    Day after tomorrow, 21 January, Monday

    Time Temperature Precipitation Wind Pressure Humidity
    00:00 +21°C° 0 mm 0 mps 698 mmHg 92%
    01:00 +21°C° 0 mm 0 mps 698 mmHg 92%
    02:00 +23°C° 0 mm 1 mps 697 mmHg 92%
    03:00 +22°C° 0 mm 1 mps 697 mmHg 93%
    04:00 +22°C° 0 mm 1 mps 697 mmHg 94%
    05:00 +22°C° 0 mm 1 mps 697 mmHg 95%
    06:00 +22°C° 0 mm 1 mps 698 mmHg 96%
    07:00 +24°C° 0.2 mm 1 mps 698 mmHg 91%
    08:00 +25°C° 0.2 mm 1 mps 699 mmHg 87%
    09:00 +27°C° 0.2 mm 1 mps 700 mmHg 83%
    10:00 +28°C° 1 mm 2 mps 700 mmHg 79%
    11:00 +29°C° 1 mm 2 mps 700 mmHg 76%
    12:00 +30°C° 1 mm 3 mps 700 mmHg 72%
    13:00 +30°C° 1.4 mm 3 mps 700 mmHg 73%
    14:00 +30°C° 1.4 mm 3 mps 699 mmHg 75%
    15:00 +30°C° 1.4 mm 3 mps 698 mmHg 76%
    16:00 +29°C° 1.5 mm 2 mps 698 mmHg 80%
    17:00 +28°C° 1.5 mm 1 mps 698 mmHg 85%
    18:00 +28°C° 1.5 mm 1 mps 698 mmHg 89%
    19:00 +27°C° 0.4 mm 1 mps 698 mmHg 89%
    20:00 +26°C° 0.4 mm 1 mps 698 mmHg 89%
    21:00 +24°C° 0.4 mm 1 mps 699 mmHg 90%
    22:00 +24°C° 0.1 mm 1 mps 699 mmHg 91%
    23:00 +24°C° 0.1 mm 1 mps 699 mmHg 92%

    22 January, Tuesday

    Time Temperature Precipitation Wind Pressure Humidity
    00:00 +23°C° 0.1 mm 1 mps 699 mmHg 92%
    01:00 +23°C° 0.1 mm 1 mps 699 mmHg 93%
    02:00 +23°C° 0.1 mm 1 mps 698 mmHg 93%
    03:00 +23°C° 0.1 mm 1 mps 698 mmHg 93%
    04:00 +23°C° 0 mm 1 mps 698 mmHg 94%
    05:00 +23°C° 0 mm 1 mps 698 mmHg 94%
    06:00 +22°C° 0 mm 1 mps 699 mmHg 94%
    07:00 +24°C° 0.6 mm 1 mps 699 mmHg 91%
    08:00 +26°C° 0.6 mm 1 mps 700 mmHg 87%
    09:00 +27°C° 0.6 mm 2 mps 700 mmHg 84%
    10:00 +28°C° 2 mm 2 mps 700 mmHg 81%
    11:00 +29°C° 2 mm 2 mps 700 mmHg 78%
    12:00 +30°C° 2 mm 3 mps 700 mmHg 76%
    13:00 +30°C° 1.6 mm 3 mps 700 mmHg 75%
    14:00 +30°C° 1.6 mm 2 mps 699 mmHg 75%
    15:00 +30°C° 1.6 mm 2 mps 699 mmHg 75%
    16:00 +29°C° 0.7 mm 2 mps 699 mmHg 78%
    17:00 +29°C° 0.7 mm 1 mps 698 mmHg 82%
    18:00 +26°C° 0.7 mm 0 mps 698 mmHg 85%
    19:00 +27°C° 0.1 mm 1 mps 698 mmHg 86%
    20:00 +26°C° 0.1 mm 1 mps 699 mmHg 87%
    21:00 +25°C° 0.1 mm 1 mps 699 mmHg 87%
    22:00 +24°C° 0 mm 1 mps 699 mmHg 88%
    23:00 +24°C° 0 mm 1 mps 699 mmHg 89%

    23 January, Wednesday

    Time Temperature Precipitation Wind Pressure Humidity
    00:00 +24°C° 0 mm 1 mps 699 mmHg 90%
    01:00 +23°C° 0 mm 1 mps 698 mmHg 91%
    02:00 +23°C° 0 mm 1 mps 698 mmHg 92%
    03:00 +23°C° 0 mm 1 mps 698 mmHg 94%
    04:00 +23°C° 0 mm 1 mps 698 mmHg 94%
    05:00 +22°C° 0 mm 1 mps 698 mmHg 94%
    06:00 +22°C° 0 mm 1 mps 698 mmHg 94%
    07:00 +24°C° 0 mm 1 mps 699 mmHg 88%
    08:00 +26°C° 0 mm 1 mps 700 mmHg 83%
    09:00 +28°C° 0 mm 1 mps 701 mmHg 78%
    10:00 +29°C° 0.5 mm 1 mps 700 mmHg 73%
    11:00 +31°C° 0.5 mm 1 mps 700 mmHg 68%
    12:00 +32°C° 0.5 mm 1 mps 700 mmHg 63%
    13:00 +32°C° 1.6 mm 1 mps 700 mmHg 65%
    14:00 +31°C° 1.6 mm 1 mps 699 mmHg 67%
    15:00 +31°C° 1.6 mm 1 mps 699 mmHg 69%
    16:00 +30°C° 3.5 mm 1 mps 699 mmHg 77%
    17:00 +28°C° 3.5 mm 1 mps 698 mmHg 84%
    18:00 +26°C° 3.5 mm 2 mps 698 mmHg 91%
    19:00 +26°C° 0.1 mm 1 mps 698 mmHg 90%
    20:00 +25°C° 0.1 mm 1 mps 698 mmHg 90%
    21:00 +22°C° 0.1 mm 0 mps 698 mmHg 89%
    22:00 +24°C° 0 mm 1 mps 698 mmHg 90%
    23:00 +23°C° 0 mm 1 mps 698 mmHg 91%

    24 January, Thursday

    Time Temperature Precipitation Wind Pressure Humidity
    00:00 +23°C° 0 mm 2 mps 698 mmHg 92%
    01:00 +23°C° 0 mm 1 mps 698 mmHg 92%
    02:00 +23°C° 0 mm 1 mps 697 mmHg 92%
    03:00 +23°C° 0 mm 1 mps 696 mmHg 91%
    04:00 +22°C° 0 mm 1 mps 696 mmHg 92%
    05:00 +22°C° 0 mm 1 mps 697 mmHg 92%
    06:00 +22°C° 0 mm 1 mps 697 mmHg 92%
    07:00 +24°C° 0 mm 1 mps 698 mmHg 89%
    08:00 +25°C° 0 mm 1 mps 698 mmHg 85%
    09:00 +27°C° 0 mm 1 mps 699 mmHg 81%
    10:00 +28°C° 0 mm 1 mps 699 mmHg 75%
    11:00 +30°C° 0 mm 1 mps 699 mmHg 68%
    12:00 +31°C° 0 mm 1 mps 699 mmHg 61%
    13:00 +31°C° 0.4 mm 1 mps 699 mmHg 64%
    14:00 +31°C° 0.4 mm 2 mps 698 mmHg 66%
    15:00 +31°C° 0.4 mm 2 mps 698 mmHg 68%
    16:00 +30°C° 2.3 mm 1 mps 697 mmHg 75%
    17:00 +29°C° 2.3 mm 1 mps 697 mmHg 82%
    18:00 +25°C° 2.3 mm 0 mps 697 mmHg 89%
    19:00 +26°C° 0.1 mm 1 mps 697 mmHg 90%
    20:00 +25°C° 0.1 mm 1 mps 697 mmHg 91%
    21:00 +24°C° 0.1 mm 1 mps 698 mmHg 93%
    22:00 +23°C° 0 mm 2 mps 698 mmHg 93%
    23:00 +23°C° 0 mm 2 mps 698 mmHg 94%
    Show more